Tracking 25710 objects as of 5-Jul-2022
HD Live streaming from Space Station
objects crossing your sky now

FENGYUN 1C DEB

Track FENGYUN 1C DEB now!
10-day predictions


NORAD ID: 31643
Int'l Code: 1999-025CAZ
Perigee: 832.2 km
Apogee: 974.7 km
Inclination: 98.4 °
Period: 102.9 minutes
Semi major axis: 7274 km
RCS: 0.0065 m2 (small)
Launch date: May 10, 1999
Source: People's Republic of China (PRC)
Launch site: Taiyaun Space Center, China (TSC)

Note: This is SATELLITE DEBRIS
aabbcc
Your satellite tracking list
Your tracking list is empty




NASA's NSSDC Master Catalog

Two Line Element Set (TLE):
1 31643U 99025CAZ 22184.55088257  .00000885  00000-0  61123-3 0  9996
2 31643  98.4079  93.7687 0097955 253.9126 231.5709 13.99272438772549
Source of the keplerian elements: AFSPC